Location: Kawakawa
(35.3830°S, 174.0670°E)
Time: 17:40:13
(UTC+13:00)

Altair - Pass Details

Date: 08 December 2019
Orbit: 1502 x 1682 km, 47.2° (Epoch: 18 January)

Event Time Altitude Azimuth Distance (km) Brightness Sun altitude
Rises 18:21:23 0° 238° (WSW) 4,952 11.3 23.5°
Reaches altitude 10° 18:24:40 10° 242° (WSW) 3,963 11.3 22.9°
Maximum altitude 18:34:25 52° 314° (NW) 2,009 8.8 20.9°
Drops below altitude 10° 18:43:58 10° 27° (NNE) 3,876 9.3 19.0°
Sets 18:47:09 0° 31° (NNE) 4,836 9.7 18.4°
